Find OPS 9313

NORAD ID: 2217 Int'l Des: 1966-053 Owner: AFSSD Country: US operational
MEOCIRCULAR

实时位置

正在加载3D地球...

关于 OPS 9313

正在加载描述...

即将过境

Passes for default location (London). Set your location on the main map for personalized predictions.

高度历史

Loading altitude history...

两行轨道根数

1 2217U 66053D 26104.63844231 -.00000061 00000-0 00000+0 0 9993
2 2217 8.5205 44.7561 0035867 210.7527 149.0237 1.07753886138838
Epoch: Apr 14, 2026 • Age: 38 hours

当前状态

高度 33713.9 km
速度 3.16 km/s
星下点 -8.31°S, 14.92°E
类型 other

Most Searched